sat.trackr.live / text

‹ back to catalog

USA 342

NORAD 55263 · 2023-008A

PAYLOAD ACTIVE UNKNOWN

§ Identity

Operator
Country
US
Launch date
2023-01-15
Launch site
AFETR
Launch vehicle
Mass (kg)
RCS (m²)

Purposes: comms

External: N2YO · Heavens-Above · Gunter

§ Orbital elements

Epoch: 2026-09-17T12:03:07.131168Z

Period
1,436.09 min
Inclination
0.0086°
Eccentricity
0.0000420
Mean motion
1.00272077 rev/d
Perigee alt
35,784.7 km
Apogee alt
35,788.3 km
Semi-major
42,164.7 km
B*
0.0000e+0
RAAN
123.3006°
Arg perigee
137.9896°
Mean anomaly
299.7594°
Rev number
1,344

§ Raw data

USA 3421 55263U 23008A   26260.50216587  .00000134  00000+0  00000+0 0  99902 55263   0.0086 123.3006 0000420 137.9896 299.7594  1.00272077 13444

JSON: /api/v1/satellites/55263 · /tle

For live sub-satellite position, see the globe view (requires WebGL).

§ Visibility from observer

Set your observer location to see the next 7 days of passes ≥ 10°. The values pass through the URL so the page stays shareable.

No JS? Fill the form by hand. The geolocation button needs JavaScript.